Regional Weather Roundup
Issued by NWS

Home | Current Version | Previous Version | Graphics & Text | Print | Product List | Glossary On
Versions: 1 2 3 4 5 6 7 8 9 10 11 12 13 14 15 16 17 18 19 20 21 22 23 24 25 26 27 28 29 30 31 32 33 34 35 36 37 38 39 40 41 42 43 44 45 46 47 48 49 50
129
ASUS43 KMPX 281010
RWRMN
WEATHER ROUNDUP FOR MINNESOTA
NATIONAL WEATHER SERVICE TWIN CITIES/CHANHASSEN MN
500 AM CDT SUN AUG 28 2016


NOTE: "FAIR" INDICATES FEW OR NO CLOUDS BELOW 12,000 FEET WITH NO
SIGNIFICANT WEATHER AND/OR OBSTRUCTIONS TO VISIBILITY. N/A MEANS
CURRENT SKY AND/OR WEATHER CONDITIONS ARE NOT AVAILABLE.

MNZ060>063-068>070-281100-
   Twin Cities Metro

CITY           SKY/WX    TMP DP  RH WIND       PRES   REMARKS
TWIN CITIES    FOG       61  60  97 E5        30.11R VSB 1/4
ST PAUL        FOG       61  60  97 CALM      30.11S VSB 1
CRYSTAL        FOG       55  53  93 CALM      30.10R VSB 1/4
BLAINE         FOG       63  63 100 NE3       30.11R VSB<1/4
LAKEVILLE      FOG       55  55 100 CALM      30.10S VSB 1/2
EDEN PRAIRIE   CLEAR     61  59  93 NE3       30.09R FOG
LAKEVILLE      FOG       55  55 100 CALM      30.10S VSB 1/2
SOUTH ST PAUL  FOG       62  61  98 CALM      30.11R VSB 1/4
LAKE ELMO      FOG       59  59 100 CALM      30.12S VSB<1/4
$$
MNZ001>005-007-008-013>017-022>024-027-028-281100-
   Northwest Minnesota

CITY           SKY/WX    TMP DP  RH WIND       PRES   REMARKS
BEMIDJI        FOG       56  56 100 S6        30.08R VSB 1/2
HALLOCK        CLEAR     55  55 100 SE8       29.97S
ROSEAU         CLEAR     52  46  82 CALM      30.02R
WARROAD        PTCLDY    54  48  82 E3        30.03R
THIEF RVR FALL CLEAR     54  53  97 SE7       30.03R
CROOKSTON      CLEAR     55  55 100 S9        30.01R
FOSSTON        CLEAR     57  55  94 SE7       30.05R
DETROIT LAKES  CLOUDY    59  59 100 SE7       30.06S
MOORHEAD       CLOUDY    61  57  88 SE9       30.02R
PARK RAPIDS    FOG       60  58  92 SE9       30.08R VSB 1
MAHNOMEN       FAIR      58  56  96 SE6       30.04R
$$
MNZ006-009>011-018-025>026-281100-
   North Central Minnesota

CITY           SKY/WX    TMP DP  RH WIND       PRES   REMARKS
BAUDETTE       FOG       54  54 100 SE5       30.04R VSB 1/2
FLAG ISLAND    CLEAR     63  59  88 CALM      30.02R FOG
INTL FALLS     FOG       55  54  96 SW5       30.06S VSB 3/4
WASKISH          N/A     57  57 100 CALM      30.06R FOG
BIG FORK       CLOUDY    57  57 100 MISG      30.09R FOG
LONGVILLE      CLOUDY    61  59  94 S6        30.10R
GRAND RAPIDS   CLOUDY    58  58 100 S7        30.12R
CRANE LAKE     CLEAR     48  48 100 S2        30.10R
ORR            CLOUDY    54  52  94 CALM      30.07R FOG
COOK           MOCLDY    46  46 100 CALM      30.10R
WALKER         CLOUDY    59  58  97 S5        30.09R
$$
MNZ012-019>021-037-281100-
   Northeast Minnesota

CITY           SKY/WX    TMP DP  RH WIND       PRES   REMARKS
DULUTH         CLOUDY    59  58  96 SW6       30.12R
ELY              N/A     52  52 100 CALM      30.11R FOG
HIBBING        FOG       53  53 100 SE5       30.11R VSB 1/2
EVELETH        CLOUDY    53  52  97 CALM      30.12R
DULUTH HARBOR  CLOUDY    61  57  88 S7        30.13R
TWO HARBORS    HAZE      55  50  82 CALM      30.10R VSB 1/2
SILVER BAY     PTCLDY    54  54 100 CALM      30.10R
GRAND MARAIS     N/A     55  54  96 W3        30.09S
G MARAIS ARPRT FOG       52  48  87 CALM      30.12S VSB 3/4
$$
MNZ029>031-032-039>041-046>048-054>057-064-281100-
   West Central Minnesota

CITY           SKY/WX    TMP DP  RH WIND       PRES   REMARKS
FERGUS FALLS   CLOUDY    63  63 100 S10       30.06R
WHEATON        CLOUDY    64  63  94 S7G16     30.05R
MORRIS         CLOUDY    63  63 100 CALM      30.04F
ALEXANDRIA     CLOUDY    60  59  96 SE6       30.09R
ELBOW LAKE     LGT RAIN  63  61  95 SE7       30.04F
WADENA         CLOUDY    59  59 100 SE9       30.09R FOG
GLENWOOD       LGT RAIN  59  57  94 CALM      30.09S
APPLETON       TSTM      64  61  88 S3        30.07F
BENSON         CLOUDY    63  59  88 W5        30.09R
ORTONVILLE     TSTM      61  57  88 CALM      30.07R
MADISON        CLOUDY    64  61  88 NE6       30.07R
WILLMAR        FAIR      63  63 100 E7        30.08F
$$
MNZ033>034-036-042>043-049>051-058-059-281100-
   Central Minnesota

CITY           SKY/WX    TMP DP  RH WIND       PRES   REMARKS
ST CLOUD       FOG       60  60 100 SE5       30.11R VSB 1/4
SAUK CENTRE    FOG       59  59 100 CALM      30.10S VSB 1
PAYNESVILLE    CLOUDY    60  61 100 E3        30.09S
AITKIN         CLOUDY    59  54  82 CALM      30.10R
PINE RIVER     CLOUDY    59  59 100 S8        30.13R FOG
BRAINERD       FOG       59  59 100 S7        30.11R VSB 1/2
STAPLES        CLOUDY    57  57 100 S6        30.10R FOG
LONG PRAIRIE   FOG       59  59 100 E3        30.10S VSB 1
LITTLE FALLS   FOG       61  59  94 SE3       30.11R VSB 1/2
LITCHFIELD     CLOUDY    63  63 100 CALM      30.09S
BUFFALO        FOG       59  58  96 CALM      30.12R VSB 1/4
MAPLE LAKE     FOG       62  62  99 E3        30.11R VSB 3/4
HUTCHINSON     FOG       59  59 100 CALM      30.11R VSB 1/4
$$
MNZ037-044-045-052-053-281100-
   East Central Minnesota

CITY           SKY/WX    TMP DP  RH WIND       PRES   REMARKS
PRINCETON      FOG       63  61  94 CALM      30.12R VSB 1/2
MORA           CLOUDY    59  59 100 CALM      30.14R FOG
CAMBRIDGE      FOG       63  59  88 CALM      30.11R VSB 1/4
RUSH CITY      LGT RAIN  60  59  97 CALM      30.12R
MOOSE LAKE     CLOUDY    59  57  94 S5        30.11S
HINCKLEY       CLOUDY    61  61 100 CALM      30.13R
CLOQUET        CLOUDY    61  57  88 SW3       30.13R
MCGREGOR       CLOUDY    57  55  94 S6        30.13R VSB 3/4
$$
MNZ071>073-080-081-089-090-097-098-281100-
   Southwest Minnesota

CITY           SKY/WX    TMP DP  RH WIND       PRES   REMARKS
MONTEVIDEO     TSTM      64  64 100 N8G20     30.09R
GRANITE FALLS  CLOUDY    65  62  92 SE9       30.06F
CANBY          CLOUDY    65  63  94 CALM      30.07R FOG
MARSHALL       PTCLDY    63  61  93 S12       30.05S
REDWOOD FALLS  CLOUDY    61  59  93 SE8       30.06S FOG
OLIVIA         CLOUDY    59  57  94 SE5       30.06F
PIPESTONE      CLEAR     64  63  94 SE8       30.06S
WINDOM         CLEAR     64  63  94 SE6       30.08F
WORTHINGTON    CLEAR     62  61  96 CALM      30.09R
JACKSON          N/A     63  61  94 S7        30.10S FOG
TRACY          CLEAR     63  62  96 S8        30.06S FOG
SLAYTON        CLEAR     57  57 100 SE7       30.08S
$$
MNZ065>067-074>077-082>085-091>093-281100-
   South Central Minnesota

CITY           SKY/WX    TMP DP  RH WIND       PRES   REMARKS
MANKATO        CLEAR     63  59  88 SE6       30.09S
NEW ULM          N/A     61  61 100 NE3       30.09R
ST JAMES       CLEAR     57  57 100 SE5       30.09S FOG
FAIRMONT       FOG       59  59 100 S3        30.10R VSB 1/4
GLENCOE        FOG       59  60 100 CALM      30.09S VSB 1/2
FARIBAULT      FOG       55  55 100 CALM      30.11R VSB 1/4
OWATONNA         N/A     61  59  94 CALM      30.11R FOG
WASECA         CLEAR     59  59 100 SE3       30.11S FOG
ALBERT LEA     FOG       63  63 100 CALM      30.11S VSB 1/2
$$
MNZ078>079-086>088-094>096-281100-
   Southeast Minnesota

CITY           SKY/WX    TMP DP  RH WIND       PRES   REMARKS
ROCHESTER      FOG       61  61 100 S5        30.14R VSB 1/4
RED WING       FOG       63  61  94 CALM      30.10S VSB 1/4
STANTON        CLOUDY    55  54  94 CALM      30.10R VSB 1/2
DODGE CENTER   FOG       59  57  94 SE3       30.13R VSB 1/2
WINONA         FOG       63  63 100 CALM      30.13R VSB 1/2
AUSTIN         FOG       61  61 100 CALM      30.12R VSB 1/4
PRESTON        FOG       62  61  96 SW3       30.14R VSB 1/4
$$
ABBREVIATIONS USED IN REMARKS
   TC - TEMPERATURES IN CELSIUS
  WCI - WIND CHILL INDEX
   HX - HEAT INDEX
  VSB - VISIBILITY
$$




USA.gov is the U.S. government's official web portal to all federal, state and local government web resources and services.